Overview Statistics Trail Chart Weather Telemetry Raw packets
 

This is the latest recevied weather packets stored in our database for station/object IW1RCO-13. If no packets are shown the sender has not sent any weather packets the latest 10 day(s).

<< 1 2 3 4 5 >>
Time Temp. Humidity Pressure Rain* Wind** Luminosity Snow
1788694167 30° C 63% 1021.2 hPa - - - -
1788693870 30° C 63% 1021.5 hPa - - - -
1788690869 29.44° C 64% 1021.5 hPa - - - -
1788690573 29.44° C 63% 1021.5 hPa - - - -
1788690269 29.44° C 64% 1021.5 hPa - - - -
1788689972 28.89° C 64% 1021.5 hPa - - - -
1788689669 28.89° C 63% 1021.5 hPa - - - -
1788689372 29.44° C 62% 1021.5 hPa - - - -
1788689068 28.89° C 62% 1021.5 hPa - - - -
1788688772 29.44° C 60% 1021.5 hPa - - - -
1788688468 28.89° C 61% 1021.5 hPa - - - -
1788688171 28.89° C 61% 1021.5 hPa - - - -
1788687868 28.89° C 62% 1021.2 hPa - - - -
1788687571 28.89° C 61% 1021.6 hPa - - - -
1788687268 28.89° C 61% 1021.5 hPa - - - -
1788686971 28.33° C 64% 1021.5 hPa - - - -
1788686667 27.78° C 62% 1021.4 hPa - - - -
1788686371 28.33° C 63% 1021.3 hPa - - - -
1788686067 28.33° C 61% 1021.6 hPa - - - -
1788685770 28.89° C 55% 1021.4 hPa - - - -
1788685474 28.89° C 56% 1021.5 hPa - - - -
1788685170 28.89° C 54% 1021.5 hPa - - - -
1788684570 27.78° C 58% 1021.5 hPa - - - -
1788684273 27.78° C 60% 1021.5 hPa - - - -
1788683970 27.78° C 58% 1021.5 hPa - - - -

* Rain since midnight (hover to see other rain measurements)
** Current wind speed in m/s (hover to see current wind gust speed)